[[{"header":{"parameterUnit":"m.s-1","parameterCategory":1,"la1":30.2991,"la2":30.254,"lo1":-89.0895,"lo2":-89.0444,"dx":0.0017,"dy":0.0017,"nx":28,"ny":28,"refTime":"2023-01-13T09:00:00:Z","depth":0,"parameterNumber":2,"parameterNumberName":"U-component_of_WINDS"},"data":[0,0,0,0,0,0,0,0,0,0,0,0,0,0,0,0,0,0,0,0,0,0,0,0,0,0,0,0,0,0,0,0,0,0,0,0,0,0,0,0,0,0,0,0,0,0,0,0,0,0,0,0,0,0,0,0,0,0,3.3576,3.3577,0,3.3646,3.3646,3.3647,3.3634,3.3633,3.3632,3.3631,3.37,3.3703,3.3706,0,0,0,0,0,0,0,0,0,0,0,0,0,3.3434,3.3437,3.3576,3.3577,3.3578,3.3645,3.3646,3.3647,3.3635,3.3633,3.3632,3.363,3.3699,3.3703,3.3706,0,0,0,0,0,0,0,0,0,0,0,0,0,3.3499,3.3437,3.3576,3.358,3.3581,3.3645,3.3646,3.3648,3.3635,3.3633,3.3631,3.3629,3.3698,3.3702,3.3707,3.3771,0,0,3.3721,3.3722,0,0,0,0,0,0,0,0,3.3495,3.3504,3.3578,3.358,3.3581,3.3629,3.3622,3.3689,3.3635,3.3614,3.3631,3.3629,3.3678,3.3684,3.3701,3.3775,3.3778,3.3721,3.3724,3.3726,3.3727,0,0,0,0,0,0,0,3.3491,3.3501,3.3604,3.358,3.3581,3.3578,3.3585,3.3634,3.3656,3.3616,3.3615,3.3624,3.3678,3.3697,3.3703,3.3779,3.3721,3.3725,3.3728,3.3729,3.3912,3.3914,0,0,0,0,0,0,3.3485,3.3497,3.3601,3.3606,3.3533,3.3582,3.359,3.3616,3.3655,3.3659,3.3625,3.3623,3.369,3.3697,3.3705,3.3785,3.3726,3.373,3.3732,3.391,3.3912,3.3915,0,0,0,0,0,0,3.3482,3.3494,3.3599,3.3551,3.3564,3.3587,3.3615,3.3618,3.3636,3.3662,3.3666,3.364,3.3689,3.3699,3.3756,3.3787,3.3732,3.3736,3.3907,3.391,3.3913,3.3944,0,0,0,0,0,0,3.3478,3.3493,3.3518,3.3552,3.3567,3.3648,3.3617,3.3621,3.3644,3.3642,3.3677,3.3681,3.3688,3.3749,3.376,3.3792,3.3739,3.3904,3.3909,3.3912,3.3941,3.3948,3.3955,0,0,0,0,0,3.3473,3.3523,3.3519,3.3532,3.3598,3.365,3.3658,3.3666,3.3647,3.3672,3.3689,3.368,3.3782,3.3755,3.3767,3.3801,3.3902,3.3907,3.3912,3.3937,3.3947,3.3955,0,0,0,0,0,0,3.349,3.3527,3.3523,3.3586,3.3615,3.3648,3.3679,3.3675,3.371,3.3706,3.3714,3.3722,3.378,3.3797,3.3766,3.3867,3.384,3.3847,3.3855,3.3864,3.3871,3.3865,3.3743,0,0,0,0,0,3.3502,3.3541,3.3571,3.3623,3.3638,3.3657,3.3679,3.3683,3.3713,3.3725,3.3746,3.3776,3.3815,3.384,3.3877,3.3943,3.3951,3.3973,3.398,3.3986,3.3992,3.403,3.4041,3.3931,3.393,3.393,0,0,3.3525,3.355,3.3574,3.3628,3.365,3.3691,3.3667,3.371,3.3741,3.3732,3.3787,3.3804,3.3838,3.39,3.3929,3.3915,3.4025,3.3992,3.3996,3.3999,3.4036,3.4047,3.4056,3.3934,3.3933,3.3933,0,0,3.3589,3.3611,3.3658,3.3683,3.3718,3.3731,3.3742,3.3776,3.3787,3.3843,3.3838,3.3875,3.3941,3.3966,3.3987,3.4064,3.4058,3.4076,3.4113,3.415,3.4159,3.4166,3.4195,3.4205,3.4082,3.4082,3.4082,0,3.3613,3.3674,3.3683,3.3728,3.3752,3.3747,3.3796,3.3819,3.3864,3.3882,3.3866,3.3952,3.3974,3.4043,3.4062,3.4079,3.4093,3.4072,3.4157,3.4165,3.4172,3.4199,3.421,3.4084,3.4084,3.4084,3.4084,0,3.3703,3.3746,3.378,3.3826,3.3854,3.3901,3.3917,3.3944,3.3947,3.3961,3.4019,3.4046,3.409,3.4107,3.4108,3.4177,3.4168,3.4155,3.4127,3.4184,3.421,3.4221,3.4087,3.4087,3.4086,3.4086,0,0,3.3778,3.383,3.3843,3.3864,3.3905,3.3938,3.3985,3.4029,3.4053,3.4086,3.4126,3.4184,3.4173,3.4197,3.4202,3.4235,3.4296,3.4218,3.4219,3.4232,3.4375,3.4386,3.4397,3.4292,3.4294,3.4296,3.4373,0,3.3846,3.393,3.394,3.4014,3.4055,3.4053,3.4094,3.4124,3.4139,3.4176,3.4193,3.4234,3.4216,3.4231,3.4263,3.4282,3.4325,3.4276,3.4331,3.4332,3.4322,3.4411,3.4421,3.4492,3.4383,3.4385,3.4386,0,3.3936,3.3973,3.4052,3.4089,3.4107,3.4144,3.4186,3.4221,3.4256,3.4264,3.4293,3.4295,3.4345,3.4315,3.4385,3.4352,3.4375,3.4388,3.4391,3.4396,3.4363,3.4419,3.4515,3.4526,3.4402,3.4401,3.4399,0,3.3985,3.4054,3.411,3.4129,3.4173,3.42,3.422,3.4252,3.4279,3.4316,3.4333,3.4375,3.4398,3.4431,3.4444,3.4422,3.4514,3.4485,3.4523,3.4523,3.4542,3.4541,3.4644,3.4557,3.4557,3.4556,3.4556,0,3.406,3.4108,3.4133,3.4168,3.4223,3.4235,3.4289,3.4308,3.4338,3.4377,3.4377,3.4413,3.4428,3.4468,3.4478,3.4535,3.4545,3.4555,3.4557,3.4555,3.4554,3.457,3.4566,3.4559,3.4559,3.4558,3.4558,0,3.4122,3.4141,3.4203,3.4241,3.4252,3.4291,3.4323,3.4358,3.4373,3.4423,3.4435,3.446,3.4507,3.4524,3.458,3.4587,3.4654,3.4651,3.4642,3.4643,3.4681,3.4677,3.4798,3.4815,3.4716,3.4717,3.4717,0,3.4169,3.4207,3.425,3.4276,3.4298,3.434,3.4368,3.4382,3.4411,3.4454,3.4484,3.4531,3.4569,3.4644,3.4667,3.4711,3.471,3.4749,3.4716,3.4714,3.4712,3.471,3.4714,3.4755,3.4756,3.4757,3.4758,0,3.4251,3.4259,3.4299,3.4343,3.4377,3.4412,3.4446,3.4468,3.4487,3.452,3.4568,3.4598,3.4657,3.4704,3.4749,3.477,3.4768,3.4768,3.478,3.4778,3.4772,3.4777,3.466,3.4765,3.4764,3.4764,3.4764,3.4763,3.4308,3.4342,3.4378,3.4424,3.4451,3.4484,3.4519,3.454,3.4581,3.463,3.4636,3.4689,3.4724,3.4785,3.4809,3.485,3.484,3.4856,3.486,3.4864,3.4867,3.4765,3.4858,3.4858,3.4858,3.4858,3.4858,0,3.4391,3.4414,3.4456,3.4505,3.4541,3.4537,3.4575,3.4606,3.4652,3.4686,3.4724,3.4781,3.4827,3.4855,3.4902,3.493,3.493,3.4942,3.494,3.4945,3.4873,3.4859,3.4941,3.4941,3.4941,3.4941,3.4941,3.4941,3.4438,3.4496,3.4509,3.4582,3.4605,3.4657,3.468,3.471,3.4738,3.4801,3.484,3.4858,3.4891,3.494,3.4983,3.499,3.5008,3.502,3.5026,3.4959,3.495,3.4942,3.4929,3.5024,3.5024,3.5095,3.5096,3.5096]},{"header":{"parameterUnit":"m.s-1","parameterCategory":1,"la1":30.2991,"la2":30.254,"lo1":-89.0895,"lo2":-89.0444,"dx":0.0017,"dy":0.0017,"nx":28,"ny":28,"refTime":"2023-01-13T09:00:00:Z","depth":0,"parameterNumber":3,"parameterNumberName":"V-component_of_WINDS"},"data":[0,0,0,0,0,0,0,0,0,0,0,0,0,0,0,0,0,0,0,0,0,0,0,0,0,0,0,0,0,0,0,0,0,0,0,0,0,0,0,0,0,0,0,0,0,0,0,0,0,0,0,0,0,0,0,0,0,0,-6.5713,-6.5715,0,-6.5833,-6.5834,-6.5835,-6.5838,-6.5837,-6.5835,-6.5834,-6.595,-6.5955,-6.5959,0,0,0,0,0,0,0,0,0,0,0,0,0,-6.5483,-6.5487,-6.5713,-6.5715,-6.5716,-6.5833,-6.5834,-6.5836,-6.5838,-6.5837,-6.5835,-6.5833,-6.5949,-6.5954,-6.5959,0,0,0,0,0,0,0,0,0,0,0,0,0,-6.5591,-6.5489,-6.5713,-6.5732,-6.5734,-6.5832,-6.5834,-6.5836,-6.5839,-6.5837,-6.5834,-6.5832,-6.5947,-6.5954,-6.596,-6.6045,0,0,-6.5981,-6.5984,0,0,0,0,0,0,0,0,-6.5585,-6.5599,-6.5727,-6.573,-6.5734,-6.5818,-6.5796,-6.5906,-6.5839,-6.5799,-6.5834,-6.5831,-6.5908,-6.5918,-6.5945,-6.6051,-6.6056,-6.5981,-6.5985,-6.5988,-6.599,0,0,0,0,0,0,0,-6.5577,-6.5594,-6.576,-6.5729,-6.5733,-6.5733,-6.5746,-6.5817,-6.5864,-6.5802,-6.5803,-6.5817,-6.5909,-6.5938,-6.5947,-6.6058,-6.5981,-6.5987,-6.5991,-6.5994,-6.6242,-6.6245,0,0,0,0,0,0,-6.5567,-6.5588,-6.5756,-6.5764,-6.5653,-6.5739,-6.5753,-6.5793,-6.5863,-6.5872,-6.5819,-6.5817,-6.5928,-6.594,-6.5951,-6.6058,-6.5988,-6.5994,-6.5998,-6.624,-6.6243,-6.6246,0,0,0,0,0,0,-6.5562,-6.5582,-6.5752,-6.5676,-6.5698,-6.5745,-6.579,-6.5797,-6.5826,-6.5876,-6.5884,-6.584,-6.5927,-6.5942,-6.6023,-6.6062,-6.5997,-6.6004,-6.6237,-6.6241,-6.6244,-6.627,0,0,0,0,0,0,-6.5555,-6.558,-6.5614,-6.5677,-6.5702,-6.5822,-6.5793,-6.5801,-6.5838,-6.5837,-6.5898,-6.5906,-6.5926,-6.6013,-6.603,-6.607,-6.6009,-6.6233,-6.6238,-6.6243,-6.6265,-6.6274,-6.6281,0,0,0,0,0,-6.5547,-6.5614,-6.5615,-6.5636,-6.5745,-6.5825,-6.5839,-6.5862,-6.5841,-6.5875,-6.5908,-6.5904,-6.6055,-6.6021,-6.604,-6.6083,-6.6231,-6.6237,-6.6243,-6.6262,-6.6272,-6.6281,0,0,0,0,0,0,-6.5551,-6.5623,-6.5625,-6.5715,-6.5764,-6.5825,-6.5868,-6.5872,-6.5926,-6.5922,-6.5947,-6.5961,-6.6042,-6.607,-6.6032,-6.617,-6.614,-6.615,-6.6149,-6.6159,-6.6166,-6.6158,-6.6014,0,0,0,0,0,-6.5563,-6.5623,-6.5682,-6.5755,-6.578,-6.582,-6.5856,-6.587,-6.5921,-6.5941,-6.5979,-6.6028,-6.6086,-6.6124,-6.618,-6.627,-6.6283,-6.6308,-6.6316,-6.6322,-6.633,-6.6381,-6.6394,-6.6265,-6.6265,-6.6264,0,0,-6.5587,-6.5634,-6.5669,-6.5757,-6.5797,-6.5858,-6.5837,-6.5902,-6.5947,-6.595,-6.603,-6.606,-6.6116,-6.6202,-6.6242,-6.6228,-6.6369,-6.633,-6.6334,-6.6339,-6.6389,-6.6401,-6.6412,-6.6269,-6.6268,-6.6267,0,0,-6.5662,-6.5704,-6.5771,-6.5812,-6.5874,-6.59,-6.5917,-6.5978,-6.5999,-6.608,-6.6084,-6.6138,-6.6237,-6.6278,-6.6311,-6.6405,-6.6404,-6.6423,-6.6463,-6.6512,-6.6523,-6.6532,-6.6566,-6.6578,-6.6431,-6.6431,-6.6431,0,-6.5684,-6.5778,-6.5804,-6.587,-6.5909,-6.5918,-6.5986,-6.6023,-6.6099,-6.6126,-6.611,-6.6237,-6.6275,-6.6372,-6.6395,-6.6422,-6.6441,-6.6415,-6.6519,-6.6529,-6.6538,-6.6571,-6.6584,-6.6433,-6.6432,-6.6432,-6.6432,0,-6.5802,-6.5867,-6.5913,-6.599,-6.6034,-6.6101,-6.6136,-6.6178,-6.6189,-6.6217,-6.63,-6.6346,-6.6413,-6.6437,-6.6446,-6.6536,-6.6526,-6.6514,-6.6485,-6.6552,-6.6583,-6.6596,-6.6435,-6.6435,-6.6434,-6.6434,0,0,-6.5881,-6.5975,-6.5991,-6.6027,-6.6097,-6.6147,-6.6214,-6.6283,-6.6318,-6.6371,-6.6428,-6.6513,-6.6505,-6.6543,-6.6557,-6.6601,-6.6674,-6.6584,-6.6586,-6.66,-6.6777,-6.6785,-6.6799,-6.6674,-6.6677,-6.6679,-6.6772,0,-6.5965,-6.6087,-6.6114,-6.6219,-6.628,-6.629,-6.6349,-6.6397,-6.6426,-6.6481,-6.6511,-6.6573,-6.6556,-6.6579,-6.6623,-6.6656,-6.671,-6.665,-6.6727,-6.6729,-6.6713,-6.6816,-6.6825,-6.691,-6.6785,-6.6787,-6.6788,0,-6.6079,-6.6138,-6.625,-6.6314,-6.6341,-6.6393,-6.6459,-6.6512,-6.6568,-6.6585,-6.663,-6.6641,-6.671,-6.6678,-6.6775,-6.6733,-6.6767,-6.6788,-6.6792,-6.68,-6.6763,-6.6827,-6.6938,-6.6951,-6.6808,-6.6806,-6.6805,0,-6.6128,-6.6234,-6.6316,-6.6346,-6.6423,-6.646,-6.6493,-6.6547,-6.6587,-6.6644,-6.6671,-6.6734,-6.6769,-6.6817,-6.6845,-6.6818,-6.694,-6.6909,-6.6956,-6.6955,-6.6981,-6.6979,-6.7099,-6.7001,-6.7001,-6.7001,-6.7001,0,-6.6219,-6.6287,-6.6339,-6.6389,-6.6466,-6.6496,-6.6571,-6.6604,-6.6652,-6.6708,-6.672,-6.6771,-6.6805,-6.6861,-6.6883,-6.6961,-6.6976,-6.6992,-6.6997,-6.6991,-6.6989,-6.7013,-6.7008,-6.7004,-6.7004,-6.7003,-6.7002,0,-6.6285,-6.6323,-6.6413,-6.648,-6.6498,-6.6552,-6.6608,-6.6657,-6.6687,-6.6758,-6.6776,-6.6822,-6.689,-6.6922,-6.7005,-6.702,-6.7108,-6.7108,-6.709,-6.7092,-6.7137,-6.7133,-6.7277,-6.7298,-6.7186,-6.7187,-6.7188,0,-6.6341,-6.6394,-6.6468,-6.6508,-6.6543,-6.6606,-6.6649,-6.668,-6.6723,-6.6793,-6.6833,-6.6902,-6.6958,-6.7066,-6.7105,-6.7169,-6.7172,-6.7218,-6.7181,-6.7175,-6.7174,-6.7171,-6.7176,-6.7225,-6.7226,-6.7227,-6.7227,0,-6.6436,-6.6454,-6.6515,-6.6584,-6.6634,-6.6689,-6.6743,-6.6774,-6.6815,-6.6862,-6.6933,-6.6977,-6.7064,-6.7132,-6.7199,-6.7232,-6.7237,-6.7239,-6.7254,-6.7248,-6.7236,-6.7244,-6.7108,-6.7235,-6.7235,-6.7234,-6.7234,-6.7233,-6.65,-6.6549,-6.661,-6.6678,-6.6723,-6.6773,-6.6823,-6.6861,-6.6921,-6.6996,-6.7011,-6.7086,-6.7142,-6.7233,-6.7269,-6.7327,-6.7317,-6.7337,-6.7342,-6.7347,-6.735,-6.7227,-6.7339,-6.7339,-6.7339,-6.7339,-6.7339,0,-6.6597,-6.6638,-6.67,-6.6777,-6.6831,-6.6834,-6.6894,-6.6939,-6.7006,-6.7059,-6.7115,-6.7197,-6.7264,-6.7311,-6.7378,-6.7416,-6.742,-6.7433,-6.7431,-6.7438,-6.7355,-6.7337,-6.7429,-6.7429,-6.7429,-6.7429,-6.7429,-6.7429,-6.6654,-6.6738,-6.6762,-6.6868,-6.6907,-6.6983,-6.7018,-6.7065,-6.7107,-6.7199,-6.7256,-6.7287,-6.7338,-6.7409,-6.7471,-6.7483,-6.7507,-6.752,-6.7532,-6.7453,-6.7444,-6.7435,-6.7418,-6.7525,-6.7526,-6.7611,-6.7611,-6.7612]}]]